Time,TemperatureF,DewpointF,PressureIn,WindDirection,WindDirectionDegrees,WindSpeedMPH,WindSpeedGustMPH,Humidity,HourlyPrecipIn,Conditions,Clouds,dailyrainin,SoftwareType,DateUTC
2013-09-08 00:00:00,74.0,50.0,-100.00,ESE,114,5.0,-999.0,43,0.00,,,-99.99,,2013-09-08 07:00:00,
2013-09-08 00:42:00,74.0,50.0,-100.00,ESE,114,5.0,-999.0,43,0.00,,,-99.99,,2013-09-08 07:42:00,
2013-09-08 00:52:00,74.0,50.0,-100.00,ESE,114,5.0,-999.0,43,0.00,,,-99.99,,2013-09-08 07:52:00,
2013-09-08 01:00:00,75.0,47.0,-100.00,ESE,107,4.0,-999.0,37,0.00,,,-99.99,,2013-09-08 08:00:00,
2013-09-08 01:42:00,75.0,47.0,-100.00,ESE,107,4.0,-999.0,37,0.00,,,-99.99,,2013-09-08 08:42:00,
2013-09-08 01:52:00,75.0,47.0,-100.00,ESE,107,4.0,-999.0,37,0.00,,,-99.99,,2013-09-08 08:52:00,
2013-09-08 02:00:00,73.0,47.0,-100.00,ESE,111,2.0,-999.0,40,0.00,,,-99.99,,2013-09-08 09:00:00,
2013-09-08 02:43:00,73.0,47.0,-100.00,ESE,111,2.0,-999.0,40,0.00,,,-99.99,,2013-09-08 09:43:00,
2013-09-08 02:54:00,73.0,47.0,-100.00,ESE,111,2.0,-999.0,40,0.00,,,-99.99,,2013-09-08 09:54:00,
2013-09-08 03:00:00,71.0,47.0,-100.00,SW,235,4.0,-999.0,41,0.00,,,-99.99,,2013-09-08 10:00:00,
2013-09-08 03:42:00,71.0,47.0,-100.00,SW,235,4.0,-999.0,41,0.00,,,-99.99,,2013-09-08 10:42:00,
2013-09-08 03:53:00,71.0,47.0,-100.00,SW,235,4.0,-999.0,41,0.00,,,-99.99,,2013-09-08 10:53:00,
2013-09-08 04:00:00,69.0,43.0,-100.00,SSE,148,6.0,-999.0,38,0.00,,,-99.99,,2013-09-08 11:00:00,
2013-09-08 04:42:00,69.0,43.0,-100.00,SSE,148,6.0,-999.0,38,0.00,,,-99.99,,2013-09-08 11:42:00,
2013-09-08 04:52:00,69.0,43.0,-100.00,SSE,148,6.0,-999.0,38,0.00,,,-99.99,,2013-09-08 11:52:00,
2013-09-08 05:00:00,67.0,45.0,-100.00,SE,131,5.0,-999.0,44,0.00,,,-99.99,,2013-09-08 12:00:00,
2013-09-08 05:42:00,67.0,45.0,-100.00,SE,131,5.0,-999.0,44,0.00,,,-99.99,,2013-09-08 12:42:00,
2013-09-08 05:52:00,67.0,45.0,-100.00,SE,131,5.0,-999.0,44,0.00,,,-99.99,,2013-09-08 12:52:00,
2013-09-08 06:00:00,65.0,42.0,-100.00,SSE,152,5.0,-999.0,43,0.00,,,-99.99,,2013-09-08 13:00:00,
2013-09-08 06:42:00,65.0,42.0,-100.00,SSE,152,5.0,-999.0,43,0.00,,,-99.99,,2013-09-08 13:42:00,
2013-09-08 06:52:00,65.0,42.0,-100.00,SSE,152,5.0,-999.0,43,0.00,,,-99.99,,2013-09-08 13:52:00,
2013-09-08 07:00:00,66.0,40.0,-100.00,SE,142,4.0,-999.0,38,0.00,,,-99.99,,2013-09-08 14:00:00,
2013-09-08 07:42:00,66.0,40.0,-100.00,SE,142,4.0,-999.0,38,0.00,,,-99.99,,2013-09-08 14:42:00,
2013-09-08 07:52:00,66.0,40.0,-100.00,SE,142,4.0,-999.0,38,0.00,,,-99.99,,2013-09-08 14:52:00,
2013-09-08 08:00:00,69.0,41.0,-100.00,SE,126,2.0,-999.0,36,0.00,,,-99.99,,2013-09-08 15:00:00,
2013-09-08 08:45:00,69.0,41.0,-100.00,SE,126,2.0,-999.0,36,0.00,,,-99.99,,2013-09-08 15:45:00,
2013-09-08 08:54:00,69.0,41.0,-100.00,SE,126,2.0,-999.0,36,0.00,,,-99.99,,2013-09-08 15:54:00,
2013-09-08 09:00:00,76.0,42.0,-100.00,SSE,150,6.0,-999.0,28,0.00,,,-99.99,,2013-09-08 16:00:00,
2013-09-08 09:44:00,76.0,42.0,-100.00,SSE,150,6.0,-999.0,28,0.00,,,-99.99,,2013-09-08 16:44:00,
2013-09-08 09:53:00,76.0,42.0,-100.00,SSE,150,6.0,-999.0,28,0.00,,,-99.99,,2013-09-08 16:53:00,
2013-09-08 10:00:00,81.0,47.0,-100.00,SSW,210,9.0,-999.0,30,0.00,,,-99.99,,2013-09-08 17:00:00,
2013-09-08 10:43:00,81.0,47.0,-100.00,SSW,210,9.0,-999.0,30,0.00,,,-99.99,,2013-09-08 17:43:00,
2013-09-08 10:53:00,81.0,47.0,-100.00,SSW,210,9.0,-999.0,30,0.00,,,-99.99,,2013-09-08 17:53:00,
2013-09-08 11:00:00,85.0,50.0,-100.00,SW,216,14.0,-999.0,29,0.00,,,-99.99,,2013-09-08 18:00:00,
2013-09-08 11:42:00,85.0,50.0,-100.00,SW,216,14.0,-999.0,29,0.00,,,-99.99,,2013-09-08 18:42:00,
2013-09-08 11:52:00,85.0,50.0,-100.00,SW,216,14.0,-999.0,29,0.00,,,-99.99,,2013-09-08 18:52:00,
2013-09-08 12:00:00,87.0,51.0,-100.00,WSW,252,9.0,-999.0,30,0.00,,,-99.99,,2013-09-08 19:00:00,
2013-09-08 12:42:00,87.0,51.0,-100.00,WSW,252,9.0,-999.0,30,0.00,,,-99.99,,2013-09-08 19:42:00,
2013-09-08 12:52:00,87.0,51.0,-100.00,WSW,252,9.0,-999.0,30,0.00,,,-99.99,,2013-09-08 19:52:00,
2013-09-08 13:00:00,90.0,50.0,-100.00,SW,236,8.0,-999.0,25,0.00,,,-99.99,,2013-09-08 20:00:00,
2013-09-08 13:42:00,90.0,50.0,-100.00,SW,236,8.0,-999.0,25,0.00,,,-99.99,,2013-09-08 20:42:00,
2013-09-08 13:53:00,90.0,50.0,-100.00,SW,236,8.0,-999.0,25,0.00,,,-99.99,,2013-09-08 20:53:00,
2013-09-08 14:00:00,92.0,49.0,-100.00,NW,326,3.0,-999.0,22,0.00,,,-99.99,,2013-09-08 21:00:00,
2013-09-08 14:44:00,92.0,49.0,-100.00,NW,326,3.0,-999.0,22,0.00,,,-99.99,,2013-09-08 21:44:00,
2013-09-08 14:54:00,92.0,49.0,-100.00,NW,326,3.0,-999.0,22,0.00,,,-99.99,,2013-09-08 21:54:00,
2013-09-08 15:00:00,95.0,48.0,-100.00,WNW,294,6.0,-999.0,20,0.00,,,-99.99,,2013-09-08 22:00:00,
2013-09-08 15:44:00,95.0,48.0,-100.00,WNW,294,6.0,-999.0,20,0.00,,,-99.99,,2013-09-08 22:44:00,
2013-09-08 15:53:00,95.0,48.0,-100.00,WNW,294,6.0,-999.0,20,0.00,,,-99.99,,2013-09-08 22:53:00,
2013-09-08 16:00:00,96.0,45.0,-100.00,WNW,290,9.0,-999.0,17,0.00,,,-99.99,,2013-09-08 23:00:00,
2013-09-08 16:42:00,96.0,45.0,-100.00,WNW,290,9.0,-999.0,17,0.00,,,-99.99,,2013-09-08 23:42:00,
2013-09-08 16:52:00,96.0,45.0,-100.00,WNW,290,9.0,-999.0,17,0.00,,,-99.99,,2013-09-08 23:52:00,
2013-09-08 17:00:00,97.0,47.0,-100.00,NW,317,8.0,-999.0,18,0.00,,,-99.99,,2013-09-09 00:00:00,
2013-09-08 17:42:00,97.0,47.0,-100.00,NW,317,8.0,-999.0,18,0.00,,,-99.99,,2013-09-09 00:42:00,
2013-09-08 17:52:00,97.0,47.0,-100.00,NW,317,8.0,-999.0,18,0.00,,,-99.99,,2013-09-09 00:52:00,
2013-09-08 18:00:00,97.0,47.0,-100.00,NW,323,10.0,-999.0,18,0.00,,,-99.99,,2013-09-09 01:00:00,
2013-09-08 18:42:00,97.0,47.0,-100.00,NW,323,10.0,-999.0,18,0.00,,,-99.99,,2013-09-09 01:42:00,
2013-09-08 18:52:00,97.0,47.0,-100.00,NW,323,10.0,-999.0,18,0.00,,,-99.99,,2013-09-09 01:52:00,
2013-09-08 19:00:00,95.0,49.0,-100.00,NW,317,6.0,-999.0,20,0.00,,,-99.99,,2013-09-09 02:00:00,
2013-09-08 19:42:00,95.0,49.0,-100.00,NW,317,6.0,-999.0,20,0.00,,,-99.99,,2013-09-09 02:42:00,
2013-09-08 19:53:00,95.0,49.0,-100.00,NW,317,6.0,-999.0,20,0.00,,,-99.99,,2013-09-09 02:53:00,
2013-09-08 20:00:00,90.0,50.0,-100.00,North,6,1.0,-999.0,24,0.00,,,-99.99,,2013-09-09 03:00:00,
2013-09-08 20:44:00,90.0,50.0,-100.00,North,6,1.0,-999.0,24,0.00,,,-99.99,,2013-09-09 03:44:00,
2013-09-08 20:55:00,90.0,50.0,-100.00,North,6,1.0,-999.0,24,0.00,,,-99.99,,2013-09-09 03:55:00,
2013-09-08 21:00:00,84.0,54.0,-100.00,ESE,115,4.0,-999.0,35,0.00,,,-99.99,,2013-09-09 04:00:00,
2013-09-08 21:43:00,84.0,54.0,-100.00,ESE,115,4.0,-999.0,35,0.00,,,-99.99,,2013-09-09 04:43:00,
2013-09-08 21:54:00,84.0,54.0,-100.00,ESE,115,4.0,-999.0,35,0.00,,,-99.99,,2013-09-09 04:54:00,
2013-09-08 22:00:00,79.0,55.0,-100.00,SE,126,4.0,-999.0,43,0.00,,,-99.99,,2013-09-09 05:00:00,
2013-09-08 22:43:00,79.0,55.0,-100.00,SE,126,4.0,-999.0,43,0.00,,,-99.99,,2013-09-09 05:43:00,
2013-09-08 22:53:00,79.0,55.0,-100.00,SE,126,4.0,-999.0,43,0.00,,,-99.99,,2013-09-09 05:53:00,
2013-09-08 23:00:00,77.0,53.0,-100.00,SSW,192,4.0,-999.0,43,0.00,,,-99.99,,2013-09-09 06:00:00,
2013-09-08 23:42:00,77.0,53.0,-100.00,SSW,192,4.0,-999.0,43,0.00,,,-99.99,,2013-09-09 06:42:00,
2013-09-08 23:52:00,77.0,53.0,-100.00,SSW,192,4.0,-999.0,43,0.00,,,-99.99,,2013-09-09 06:52:00,